Flag for Finland Weather past 2 weeks in Helsinki, Finland

Now
43 °F

Clear.


Feels Like: 36 °F
Forecast: 37 / 56 °F
Wind: 12 mph from South

Location: Helsinki Malmi Airport


UV Index: 0 (Low)

Visibility: 10 mi


Pressure: 29.83 "Hg

Humidity: 61%

Dew point: 30 °F

Location of HelsinkiLocation

Historic Weather in Helsinki

°F

Helsinki temperature yesterday

Maximum temperature yesterday: 50 °F (at 5:20 PM)
Minimum temperature yesterday: 36 °F (at 1:50 AM)
Average temperature yesterday: 42 °F

Past Weeks' High & Low Weather Summary

 TemperatureHumidityPressure
High50 °F (Apr 15, 4:50 PM)100% (Apr 6, 9:20 PM)30.33 "Hg (Apr 6, 9:20 PM)
Low23 °F (Apr 4, 6:20 AM)23% (Apr 16, 2:20 PM)29.33 "Hg (Apr 14, 5:20 AM)
Average38 °F70%29.88 "Hg
* Reported Apr 3 5:20 AM — Apr 18 5:20 AM, Helsinki, Weather by CustomWeather, © 2014

Note: Actual official high and low records may vary slightly from our data, if they occured in-between our weather recording intervals... More about our weather records

Advertising

Historic Weather Conditions — Data for Previous 24 hours

 ConditionsComfort  
Time TempWeatherWind HumidityBarometerVisibility
5:20 AM
Apr 18
43 °FPassing clouds.9 mph61%29.80 "HgN/A
4:50 AM41 °FPassing clouds.12 mph66%29.80 "HgN/A
4:20 AM41 °FPassing clouds.12 mph66%29.80 "HgN/A
3:50 AM41 °FPassing clouds.13 mph66%29.83 "HgN/A
3:20 AM41 °FPassing clouds.12 mph66%29.80 "HgN/A
2:50 AM41 °FPassing clouds.13 mph61%29.80 "HgN/A
2:20 AM43 °FPassing clouds.14 mph57%29.80 "HgN/A
1:50 AM43 °FPassing clouds.13 mph61%29.83 "HgN/A
1:20 AM43 °FClear.12 mph61%29.83 "Hg10 mi
12:50 AM43 °FPassing clouds.13 mph61%29.83 "HgN/A
12:20 AM43 °FClear.10 mph61%29.83 "Hg10 mi
11:50 PM
Apr 17
41 °FClear.9 mph70%29.86 "Hg10 mi
11:20 PM43 °FPassing clouds.12 mph57%29.86 "HgN/A
10:50 PM43 °FPassing clouds.13 mph57%29.86 "HgN/A
10:20 PM45 °FPassing clouds.14 mph53%29.86 "HgN/A
9:50 PM45 °FPassing clouds.13 mph53%29.86 "HgN/A
9:20 PM45 °FPassing clouds.14 mph53%29.89 "HgN/A
8:50 PM46 °FPassing clouds.15 mph53%29.89 "HgN/A
7:50 PM46 °FPassing clouds.17 mph53%29.89 "HgN/A
7:20 PM48 °FPassing clouds.15 mph50%29.89 "HgN/A
6:50 PM48 °FPassing clouds.14 mph46%29.89 "HgN/A
6:20 PM48 °FPassing clouds.16 mph43%29.92 "HgN/A
5:50 PM50 °FPassing clouds.17 mph43%29.92 "HgN/A
5:20 PM50 °FPassing clouds.16 mph43%29.92 "HgN/A
4:50 PM48 °FPassing clouds.16 mph50%29.95 "HgN/A
4:20 PM48 °FPassing clouds.14 mph54%29.95 "HgN/A
3:50 PM46 °FPassing clouds.17 mph57%29.95 "HgN/A
3:20 PM48 °FPassing clouds.15 mph54%29.95 "HgN/A
2:50 PM48 °FPassing clouds.17 mph54%29.98 "HgN/A
2:20 PM46 °FPassing clouds.16 mph57%29.98 "HgN/A
1:50 PM46 °FPassing clouds.15 mph62%29.98 "HgN/A
1:20 PM46 °FPartly sunny.16 mph62%29.98 "HgN/A
12:50 PM45 °FPartly sunny.15 mph71%29.98 "HgN/A
12:20 PM45 °FPartly sunny.13 mph71%29.98 "HgN/A
11:50 AM45 °FPartly sunny.14 mph71%30.01 "HgN/A
11:20 AM43 °FPartly sunny.14 mph76%30.01 "HgN/A
10:50 AM43 °FPartly sunny.15 mph76%30.01 "HgN/A
10:20 AM41 °FPartly sunny.13 mph76%30.01 "HgN/A
9:50 AM41 °FPartly sunny.15 mph76%30.04 "HgN/A
9:20 AM41 °FPassing clouds.16 mph76%30.04 "HgN/A
8:50 AM41 °FPassing clouds.15 mph76%30.04 "HgN/A
8:20 AM41 °FPassing clouds.14 mph76%30.04 "HgN/A
7:50 AM39 °FPassing clouds.12 mph75%30.04 "HgN/A
7:20 AM39 °FPassing clouds.10 mph75%30.07 "HgN/A
6:50 AM37 °FPassing clouds.9 mph81%30.07 "HgN/A
6:20 AM37 °FClear.8 mph81%30.07 "Hg10 mi
Weather by CustomWeather, © 2014

See weather overview